| time (UTC) | temp F | wind direction | speed MPH | gust MPH | rain 1hr in | rain 24hr in | rain mn in | humidity % | barometer mb |
| 20260901152122 | 84 | 26 | 2.0 | 5.0 | 0.00 | 0.20 | 0.00 | 51 | 1017.8 |
| 20260901151121 | 84 | 16 | 3.0 | 4.0 | 0.00 | 0.20 | 0.00 | 52 | 1017.9 |
| 20260901150123 | 84 | 8 | 3.0 | 7.0 | 0.00 | 0.20 | 0.00 | 54 | 1017.9 |
| 20260901145123 | 83 | 7 | 4.0 | 6.0 | 0.00 | 0.20 | 0.00 | 55 | 1017.8 |
| 20260901144121 | 83 | 3 | 3.0 | 5.0 | 0.00 | 0.20 | 0.00 | 56 | 1017.7 |
| 20260901143142 | 82 | 1 | 3.0 | 8.0 | 0.00 | 0.20 | 0.00 | 58 | 1017.6 |
| 20260901142122 | 81 | 7 | 4.0 | 6.0 | 0.00 | 0.20 | 0.00 | 59 | 1017.6 |
| 20260901141142 | 80 | 2 | 4.0 | 8.0 | 0.00 | 0.20 | 0.00 | 61 | 1017.5 |
| 20260901140122 | 80 | 5 | 4.0 | 6.0 | 0.00 | 0.20 | 0.00 | 63 | 1017.5 |
| 20260901135121 | 79 | 2 | 3.0 | 5.0 | 0.00 | 0.20 | 0.00 | 65 | 1017.4 |
| 20260901134122 | 78 | 6 | 4.0 | 6.0 | 0.00 | 0.20 | 0.00 | 67 | 1017.4 |
| 20260901133142 | 77 | 0 | 4.0 | 6.0 | 0.00 | 0.20 | 0.00 | 69 | 1017.3 |
| 20260901132122 | 76 | 7 | 5.0 | 9.0 | 0.00 | 0.20 | 0.00 | 69 | 1017.1 |
| 20260901131121 | 76 | 22 | 3.0 | 5.0 | 0.00 | 0.20 | 0.00 | 70 | 1017.1 |
| 20260901130121 | 76 | 1 | 3.0 | 4.0 | 0.00 | 0.20 | 0.00 | 70 | 1016.9 |
| 20260901125121 | 76 | 3 | 3.0 | 5.0 | 0.00 | 0.20 | 0.00 | 69 | 1016.9 |
| 20260901123123 | 76 | 0 | 5.0 | 9.0 | 0.00 | 0.20 | 0.00 | 69 | 1016.8 |
| 20260901122122 | 76 | 360 | 6.0 | 6.0 | 0.00 | 0.20 | 0.00 | 69 | 1016.7 |
| 20260901121145 | 76 | 5 | 4.0 | 6.0 | 0.00 | 0.20 | 0.00 | 70 | 1016.7 |
| 20260901120123 | 76 | 5 | 4.0 | 8.0 | 0.00 | 0.20 | 0.00 | 71 | 1016.7 |
| 20260901115123 | 75 | 360 | 3.0 | 5.0 | 0.00 | 0.20 | 0.00 | 73 | 1016.5 |
| 20260901114123 | 75 | 360 | 3.0 | 4.0 | 0.00 | 0.20 | 0.00 | 75 | 1016.4 |
| 20260901113123 | 75 | 360 | 3.0 | 4.0 | 0.00 | 0.20 | 0.00 | 74 | 1016.4 |
| 20260901112144 | 75 | 360 | 3.0 | 4.0 | 0.00 | 0.20 | 0.00 | 72 | 1016.4 |
| 20260901111123 | 75 | 38 | 3.0 | 6.0 | 0.00 | 0.20 | 0.00 | 72 | 1016.4 |
| 20260901110123 | 75 | 95 | 3.0 | 4.0 | 0.00 | 0.20 | 0.00 | 72 | 1016.4 |
| 20260901105123 | 76 | 49 | 2.0 | 6.0 | 0.00 | 0.20 | 0.00 | 72 | 1016.4 |
| 20260901104123 | 76 | 77 | 2.0 | 4.0 | 0.00 | 0.20 | 0.00 | 72 | 1016.4 |
| 20260901103123 | 75 | 87 | 2.0 | 4.0 | 0.00 | 0.20 | 0.00 | 74 | 1016.4 |
| 20260901102123 | 75 | 41 | 4.0 | 5.0 | 0.00 | 0.20 | 0.00 | 76 | 1016.5 |
| 20260901101124 | 74 | 16 | 2.0 | 4.0 | 0.00 | 0.20 | 0.00 | 78 | 1016.6 |
| 20260901100123 | 75 | 360 | 1.0 | 2.0 | 0.00 | 0.20 | 0.00 | 78 | 1016.7 |
| 20260901095123 | 75 | 360 | 1.0 | 3.0 | 0.00 | 0.20 | 0.00 | 78 | 1016.7 |
| 20260901094123 | 75 | 114 | 0.0 | 2.0 | 0.00 | 0.20 | 0.00 | 77 | 1016.7 |
| 20260901093123 | 76 | 360 | 0.0 | 2.0 | 0.00 | 0.20 | 0.00 | 75 | 1016.8 |
| 20260901092123 | 75 | 8 | 1.0 | 3.0 | 0.00 | 0.20 | 0.00 | 77 | 1016.7 |
| 20260901091144 | 75 | 360 | 0.0 | 2.0 | 0.00 | 0.20 | 0.00 | 77 | 1016.6 |
| 20260901090123 | 75 | 115 | 0.0 | 0.0 | 0.00 | 0.20 | 0.00 | 76 | 1016.6 |
| 20260901085123 | 76 | 116 | 0.0 | 0.0 | 0.00 | 0.20 | 0.00 | 75 | 1016.5 |
| 20260901084144 | 76 | 114 | 0.0 | 2.0 | 0.00 | 0.20 | 0.00 | 73 | 1016.6 |
| 20260901083123 | 76 | 109 | 0.0 | 2.0 | 0.00 | 0.20 | 0.00 | 73 | 1016.6 |
| 20260901082124 | 76 | 56 | 1.0 | 4.0 | 0.00 | 0.20 | 0.00 | 73 | 1016.7 |
| 20260901081124 | 77 | 360 | 1.0 | 3.0 | 0.00 | 0.20 | 0.00 | 71 | 1016.7 |
| 20260901080123 | 77 | 360 | 1.0 | 3.0 | 0.00 | 0.20 | 0.00 | 70 | 1016.7 |
| 20260901075144 | 77 | 12 | 2.0 | 3.0 | 0.00 | 0.20 | 0.00 | 69 | 1016.7 |
| 20260901074144 | 77 | 360 | 3.0 | 4.0 | 0.00 | 0.20 | 0.00 | 71 | 1016.6 |
| 20260901073123 | 76 | 360 | 2.0 | 3.0 | 0.00 | 0.20 | 0.00 | 74 | 1016.6 |
| 20260901072123 | 76 | 360 | 3.0 | 3.0 | 0.00 | 0.20 | 0.00 | 74 | 1016.5 |
| 20260901071123 | 76 | 360 | 3.0 | 4.0 | 0.00 | 0.20 | 0.00 | 75 | 1016.5 |
| 20260901070124 | 76 | 360 | 3.0 | 4.0 | 0.00 | 0.20 | 0.00 | 75 | 1016.4 |
| 20260901065124 | 76 | 360 | 2.0 | 3.0 | 0.00 | 0.20 | 0.20 | 75 | 1016.5 |
| 20260901064123 | 76 | 360 | 1.0 | 2.0 | 0.00 | 0.20 | 0.20 | 73 | 1016.3 |
| 20260901063124 | 76 | 360 | 1.0 | 3.0 | 0.00 | 0.20 | 0.20 | 73 | 1016.3 |
| 20260901062123 | 77 | 360 | 0.0 | 1.0 | 0.00 | 0.20 | 0.20 | 71 | 1016.3 |
| 20260901061123 | 77 | 360 | 2.0 | 4.0 | 0.00 | 0.20 | 0.20 | 69 | 1016.2 |
| 20260901060123 | 77 | 360 | 3.0 | 4.0 | 0.00 | 0.20 | 0.20 | 70 | 1016.3 |
| 20260901055123 | 78 | 360 | 0.0 | 2.0 | 0.00 | 0.20 | 0.20 | 69 | 1016.4 |
| 20260901054123 | 79 | 360 | 1.0 | 3.0 | 0.00 | 0.20 | 0.20 | 66 | 1016.4 |
| 20260901053123 | 79 | 7 | 2.0 | 4.0 | 0.00 | 0.20 | 0.20 | 64 | 1016.4 |
| 20260901052144 | 80 | 4 | 3.0 | 5.0 | 0.00 | 0.20 | 0.20 | 63 | 1016.3 |
| 20260901051123 | 80 | 17 | 3.0 | 5.0 | 0.00 | 0.20 | 0.20 | 62 | 1016.4 |
| 20260901050145 | 80 | 34 | 4.0 | 6.0 | 0.00 | 0.20 | 0.20 | 61 | 1016.3 |
| 20260901045123 | 80 | 95 | 3.0 | 5.0 | 0.00 | 0.20 | 0.20 | 60 | 1016.4 |
| 20260901044124 | 81 | 40 | 3.0 | 8.0 | 0.00 | 0.20 | 0.20 | 59 | 1016.4 |
| 20260901043144 | 81 | 21 | 4.0 | 6.0 | 0.00 | 0.20 | 0.20 | 59 | 1016.2 |
| 20260901042144 | 81 | 4 | 3.0 | 4.0 | 0.00 | 0.20 | 0.20 | 61 | 1016.1 |
| 20260901041123 | 81 | 60 | 2.0 | 5.0 | 0.00 | 0.20 | 0.20 | 58 | 1016.2 |
| 20260901040123 | 82 | 141 | 2.0 | 5.0 | 0.00 | 0.20 | 0.20 | 57 | 1016.3 |
| 20260901035123 | 82 | 104 | 2.0 | 4.0 | 0.00 | 0.20 | 0.20 | 56 | 1016.2 |
| 20260901034123 | 82 | 84 | 2.0 | 4.0 | 0.00 | 0.20 | 0.20 | 57 | 1016.2 |
| 20260901033144 | 82 | 54 | 3.0 | 6.0 | 0.00 | 0.20 | 0.20 | 57 | 1015.8 |
| 20260901032123 | 82 | 6 | 3.0 | 5.0 | 0.00 | 0.20 | 0.20 | 56 | 1015.7 |
| 20260901031124 | 82 | 0 | 3.0 | 5.0 | 0.00 | 0.20 | 0.20 | 55 | 1015.5 |
| 20260901030124 | 82 | 6 | 4.0 | 6.0 | 0.00 | 0.20 | 0.20 | 55 | 1015.2 |
| 20260901025124 | 82 | 28 | 1.0 | 3.0 | 0.00 | 0.20 | 0.20 | 54 | 1015.2 |
| 20260901024145 | 83 | 23 | 2.0 | 4.0 | 0.00 | 0.20 | 0.20 | 53 | 1015.2 |
| 20260901023124 | 83 | 28 | 2.0 | 3.0 | 0.00 | 0.20 | 0.20 | 52 | 1015.0 |
| 20260901022124 | 83 | 23 | 3.0 | 5.0 | 0.00 | 0.20 | 0.20 | 51 | 1014.8 |
| 20260901021124 | 84 | 9 | 2.0 | 4.0 | 0.00 | 0.20 | 0.20 | 51 | 1014.7 |
| 20260901020125 | 84 | 23 | 3.0 | 6.0 | 0.00 | 0.20 | 0.20 | 49 | 1014.5 |
| 20260901015124 | 84 | 18 | 3.0 | 5.0 | 0.00 | 0.20 | 0.20 | 49 | 1014.6 |
| 20260901014124 | 85 | 1 | 4.0 | 6.0 | 0.00 | 0.20 | 0.20 | 48 | 1014.4 |
| 20260901013145 | 85 | 1 | 4.0 | 8.0 | 0.00 | 0.20 | 0.20 | 48 | 1014.3 |
| 20260901012146 | 85 | 0 | 4.0 | 8.0 | 0.00 | 0.20 | 0.20 | 47 | 1014.5 |
| 20260901011124 | 86 | 2 | 6.0 | 10.0 | 0.00 | 0.20 | 0.20 | 46 | 1014.4 |
| 20260901010125 | 86 | 77 | 4.0 | 9.0 | 0.00 | 0.20 | 0.20 | 48 | 1014.5 |
| 20260901005124 | 86 | 5 | 7.0 | 11.0 | 0.00 | 0.20 | 0.20 | 47 | 1014.5 |
| 20260901004146 | 87 | 1 | 7.0 | 11.0 | 0.00 | 0.20 | 0.20 | 47 | 1014.8 |
| 20260901003124 | 87 | 9 | 8.0 | 13.0 | 0.00 | 0.20 | 0.20 | 46 | 1014.7 |
| 20260901002145 | 88 | 15 | 2.0 | 5.0 | 0.00 | 0.20 | 0.20 | 44 | 1014.8 |
| 20260901001124 | 87 | 345 | 3.0 | 5.0 | 0.00 | 0.20 | 0.20 | 44 | 1015.0 |
| 20260901000124 | 86 | 286 | 2.0 | 6.0 | 0.00 | 0.20 | 0.20 | 44 | 1014.9 |
| 20260831235124 | 87 | 327 | 4.0 | 8.0 | 0.00 | 0.20 | 0.20 | 44 | 1014.9 |
| 20260831234125 | 87 | 321 | 4.0 | 8.0 | 0.00 | 0.20 | 0.20 | 45 | 1014.8 |
| 20260831233124 | 87 | 24 | 2.0 | 5.0 | 0.00 | 0.20 | 0.20 | 43 | 1014.9 |
| 20260831232123 | 86 | 20 | 2.0 | 4.0 | 0.00 | 0.20 | 0.20 | 45 | 1014.8 |
| 20260831231125 | 86 | 306 | 4.0 | 9.0 | 0.00 | 0.20 | 0.20 | 43 | 1015.2 |
| 20260831230146 | 86 | 124 | 4.0 | 7.0 | 0.00 | 0.20 | 0.20 | 44 | 1015.2 |
| 20260831225146 | 85 | 287 | 3.0 | 5.0 | 0.00 | 0.20 | 0.20 | 45 | 1015.4 |
| 20260831224125 | 85 | 261 | 4.0 | 6.0 | 0.00 | 0.20 | 0.20 | 46 | 1015.4 |
| 20260831223124 | 85 | 33 | 5.0 | 9.0 | 0.00 | 0.20 | 0.20 | 47 | 1015.6 |
| 20260831222146 | 85 | 258 | 5.0 | 8.0 | 0.00 | 0.20 | 0.20 | 49 | 1015.7 |
| 20260831221124 | 85 | 44 | 5.0 | 10.0 | 0.00 | 0.20 | 0.20 | 46 | 1016.2 |
| 20260831220145 | 85 | 14 | 7.0 | 11.0 | 0.00 | 0.20 | 0.20 | 48 | 1016.4 |
| 20260831215145 | 84 | 27 | 7.0 | 12.0 | 0.00 | 0.20 | 0.20 | 51 | 1016.6 |
| 20260831214124 | 84 | 12 | 7.0 | 12.0 | 0.00 | 0.20 | 0.20 | 53 | 1016.8 |
| 20260831213124 | 84 | 2 | 8.0 | 13.0 | 0.00 | 0.20 | 0.20 | 51 | 1017.1 |
| 20260831212124 | 85 | 30 | 6.0 | 12.0 | 0.00 | 0.20 | 0.20 | 50 | 1017.3 |
| 20260831211124 | 85 | 56 | 5.0 | 10.0 | 0.00 | 0.20 | 0.20 | 50 | 1017.3 |
| 20260831210124 | 85 | 11 | 6.0 | 10.0 | 0.00 | 0.20 | 0.20 | 53 | 1017.3 |
| 20260831205124 | 84 | 17 | 5.0 | 10.0 | 0.00 | 0.20 | 0.20 | 53 | 1017.5 |
| 20260831204124 | 83 | 5 | 6.0 | 10.0 | 0.00 | 0.20 | 0.20 | 61 | 1017.7 |
| 20260831203145 | 82 | 7 | 7.0 | 12.0 | 0.00 | 0.20 | 0.20 | 65 | 1017.7 |
| 20260831202124 | 81 | 5 | 6.0 | 11.0 | 0.00 | 0.20 | 0.20 | 68 | 1017.7 |
| 20260831201124 | 78 | 28 | 5.0 | 8.0 | 0.00 | 0.20 | 0.20 | 76 | 1017.8 |
| 20260831200124 | 77 | 30 | 5.0 | 10.0 | 0.00 | 0.20 | 0.20 | 79 | 1017.8 |
| 20260831195124 | 76 | 15 | 6.0 | 12.0 | 0.00 | 0.20 | 0.20 | 80 | 1017.9 |
| 20260831194125 | 76 | 40 | 7.0 | 11.0 | 0.00 | 0.20 | 0.20 | 80 | 1017.7 |
| 20260831193145 | 76 | 69 | 6.0 | 10.0 | 0.00 | 0.20 | 0.20 | 80 | 1017.9 |
| 20260831192124 | 76 | 8 | 9.0 | 13.0 | 0.00 | 0.20 | 0.20 | 79 | 1017.6 |
| 20260831191125 | 77 | 4 | 8.0 | 14.0 | 0.00 | 0.20 | 0.20 | 79 | 1018.2 |
| 20260831190145 | 77 | 0 | 9.0 | 14.0 | 0.00 | 0.20 | 0.20 | 77 | 1018.1 |
| 20260831185146 | 77 | 5 | 8.0 | 14.0 | 0.00 | 0.20 | 0.20 | 77 | 1017.9 |
| 20260831184125 | 76 | 13 | 7.0 | 12.0 | 0.00 | 0.20 | 0.20 | 79 | 1017.9 |
| 20260831183123 | 76 | 22 | 6.0 | 11.0 | 0.00 | 0.20 | 0.20 | 79 | 1017.9 |
| 20260831182146 | 76 | 7 | 11.0 | 16.0 | 0.00 | 0.20 | 0.20 | 77 | 1017.9 |
| 20260831181123 | 76 | 37 | 7.0 | 14.0 | 0.00 | 0.20 | 0.20 | 81 | 1017.9 |
| 20260831180122 | 76 | 45 | 5.0 | 9.0 | 0.00 | 0.20 | 0.20 | 81 | 1018.0 |
| 20260831175123 | 76 | 101 | 6.0 | 12.0 | 0.00 | 0.20 | 0.20 | 80 | 1018.2 |
| 20260831174122 | 75 | 38 | 4.0 | 8.0 | 0.02 | 0.20 | 0.20 | 83 | 1018.1 |
| 20260831173123 | 75 | 50 | 3.0 | 6.0 | 0.05 | 0.20 | 0.20 | 85 | 1018.4 |
| 20260831172145 | 74 | 360 | 6.0 | 10.0 | 0.07 | 0.20 | 0.20 | 85 | 1018.4 |
| 20260831171144 | 74 | 0 | 6.0 | 10.0 | 0.07 | 0.20 | 0.20 | 87 | 1018.2 |
| 20260831170123 | 73 | 1 | 9.0 | 15.0 | 0.10 | 0.20 | 0.20 | 87 | 1018.1 |
| 20260831165145 | 73 | 1 | 9.0 | 16.0 | 0.10 | 0.20 | 0.20 | 87 | 1017.9 |
| 20260831164124 | 73 | 360 | 11.0 | 17.0 | 0.10 | 0.18 | 0.18 | 87 | 1017.5 |
| 20260831163144 | 73 | 360 | 9.0 | 14.0 | 0.10 | 0.15 | 0.15 | 87 | 1017.6 |
| 20260831162122 | 73 | 1 | 5.0 | 9.0 | 0.09 | 0.14 | 0.14 | 86 | 1018.1 |
| 20260831161144 | 73 | 5 | 4.0 | 6.0 | 0.09 | 0.11 | 0.11 | 86 | 1018.0 |
| 20260831160124 | 73 | 8 | 5.0 | 9.0 | 0.10 | 0.10 | 0.10 | 86 | 1018.1 |
| 20260831155122 | 74 | 2 | 7.0 | 12.0 | 0.07 | 0.09 | 0.09 | 85 | 1018.3 |
| 20260831154123 | 74 | 2 | 9.0 | 15.0 | 0.07 | 0.07 | 0.07 | 84 | 1018.2 |
| 20260831153123 | 75 | 8 | 7.0 | 12.0 | 0.05 | 0.05 | 0.05 | 83 | 1017.9 |